Regional Weather Roundup
Issued by NWS Burlington, VT

Current Version | Previous Version | Text Only | Print | Product List | Glossary On
Versions: 1 2 3 4 5 6 7 8 9 10 11 12 13 14 15 16 17 18 19 20 21 22 23 24 25 26 27 28 29 30 31 32 33 34 35 36 37 38 39 40 41 42 43 44 45 46 47 48 49 50
000 ASUS41 KBTV 282210 RWRBTV VERMONT REGIONAL WEATHER ROUNDUP NATIONAL WEATHER SERVICE BURLINGTON VT 600 PM EDT SAT MAR 28 2015 NOTE: "FAIR" INDICATES FEW OR NO CLOUDS BELOW 12,000 FEET WITH NO SIGNIFICANT WEATHER AND/OR OBSTRUCTIONS TO VISIBILITY. * THESE REPORTS ARE NOT UNDER NWS QUALITY CONTROL AND/OR DO NOT REPORT WEATHER SUCH AS PRECIPITATION AND FOG. VTZ001>019-282300- _____VERMONT_____ CITY SKY/WX TMP DP RH WIND PRES REMARKS BURLINGTON PTCLDY 27 3 35 N10G22 30.00R WCI 17 MONTPELIER CLEAR 24 11 57 NW13G23 29.92R WCI 12 MORRISVILLE CLEAR 25 7 46 NW12G28 29.95R WCI 14 ST. JOHNSBURY* N/A 29 12 49 MISG 29.87R LYNDONVILLE* N/A 26 10 50 W13 29.88R WCI 15 RUTLAND* CLOUDY N/A N/A N/A NW13G21 29.92R SPRINGFIELD CLOUDY 29 14 53 W14 29.88R WCI 18 HIGHGATE* N/A 27 4 38 N8 30.00R NEWPORT* N/A 23 6 48 NW13G18 29.92R WCI 11 BENNINGTON CLOUDY 28 13 53 N10 29.90R WCI 19 _____LAKE CHAMPLAIN_____ CITY SKY/WX TMP DP RH WIND PRES REMARKS $$ NYZ007-026>031-035-052-083-282300- _____NORTHERN NEW YORK_____ CITY SKY/WX TMP DP RH WIND PRES REMARKS PLATTSBURGH CLEAR 27 3 35 NW13 30.01R WCI 16 SARANAC LAKE MOCLDY 20 5 52 VRB7 29.92R MASSENA CLEAR 28 2 32 W9 30.06R OGDENSBURG* CLEAR 30 3 31 N8 30.06R POTSDAM* CLEAR 27 3 36 N5 30.05R WATERTOWN CLEAR 29 1 30 N9 30.08R FT DRUM CLEAR 24 -3 31 N8 30.04R ALBANY LGT SNOW 29 21 72 NW13 29.95R VSB 1 WCI 19 GLENS FALLS CLOUDY 30 16 56 N12 29.96R $$ NHZ002-005-011-282300- _____NEW HAMPSHIRE_____ CITY SKY/WX TMP DP RH WIND PRES REMARKS LEBANON CLOUDY 33 15 47 N14G21 29.86R KEENE PTCLDY 34 19 55 N9 29.85R MT WASHINGTON SNOW 5 5 100 NW28 N/A VSB 0 WCI -18 PLYMOUTH MOCLDY 35 22 59 NW10G16 29.83R WHITEFIELD PTCLDY 31 13 47 N12 29.83R $$ _____REGIONAL QUEBEC LOCATIONS_____ CITY SKY/WX TMP DP RH WIND PRES REMARKS MONTREAL PTCLDY 27 7 43 SW15 30.01R WCI 15 QUEBEC CITY PTCLDY 30 10 43 S5 29.89F SHERBROOKE CLEAR 25 9 50 NW9 29.90R _____REGIONAL ONTARIO LOCATIONS_____ CITY SKY/WX TMP DP RH WIND PRES REMARKS OTTAWA CLEAR 28 -4 24 N13G21 30.05S WCI 18 ______KEY______ VSB - VISIBILITY IN MILES WCI - WIND CHILL INDEX HX - HEAT INDEX $$ NNNN

USA.gov is the U.S. government's official web portal to all federal, state and local government web resources and services.